TimeCDT,TemperatureF,Dew PointF,Humidity,Sea Level PressureIn,VisibilityMPH,Wind Direction,Wind SpeedMPH,Gust SpeedMPH,PrecipitationIn,Events,Conditions,WindDirDegrees,DateUTC
12:52 AM,68.0,55.9,65,30.11,10.0,South,9.2,-,N/A,,Clear,180,2012-09-12 05:52:00
1:52 AM,64.9,55.9,73,30.12,10.0,South,8.1,-,N/A,,Clear,180,2012-09-12 06:52:00
2:52 AM,61.0,55.9,83,30.12,10.0,South,6.9,-,N/A,,Clear,170,2012-09-12 07:52:00
3:52 AM,61.0,55.0,81,30.12,10.0,South,5.8,-,N/A,,Clear,170,2012-09-12 08:52:00
4:52 AM,59.0,54.0,83,30.13,10.0,South,5.8,-,N/A,,Clear,170,2012-09-12 09:52:00
5:52 AM,59.0,55.0,87,30.14,10.0,South,4.6,-,N/A,,Clear,170,2012-09-12 10:52:00
6:52 AM,59.0,55.0,87,30.16,10.0,South,5.8,-,N/A,,Clear,170,2012-09-12 11:52:00
7:52 AM,64.9,57.0,75,30.17,10.0,South,5.8,-,N/A,,Clear,170,2012-09-12 12:52:00
8:52 AM,71.1,57.0,61,30.18,10.0,South,9.2,-,N/A,,Clear,180,2012-09-12 13:52:00
9:52 AM,77.0,57.9,52,30.18,10.0,South,10.4,-,N/A,,Clear,190,2012-09-12 14:52:00
10:52 AM,81.0,57.0,44,30.18,10.0,SW,13.8,-,N/A,,Clear,220,2012-09-12 15:52:00
11:52 AM,82.9,57.0,41,30.17,10.0,SW,12.7,19.6,N/A,,Clear,220,2012-09-12 16:52:00
12:52 PM,84.0,55.9,38,30.15,10.0,SW,9.2,-,N/A,,Clear,220,2012-09-12 17:52:00
1:52 PM,86.0,54.0,33,30.13,10.0,South,15.0,26.5,N/A,,Clear,190,2012-09-12 18:52:00
2:52 PM,84.9,54.0,34,30.11,10.0,SW,10.4,23.0,N/A,,Partly Cloudy,220,2012-09-12 19:52:00
3:52 PM,84.9,53.1,33,30.10,10.0,South,13.8,23.0,N/A,,Partly Cloudy,170,2012-09-12 20:52:00
4:52 PM,84.0,55.0,37,30.10,10.0,South,10.4,-,N/A,,Partly Cloudy,170,2012-09-12 21:52:00
5:52 PM,82.0,55.0,39,30.10,10.0,South,13.8,-,N/A,,Partly Cloudy,170,2012-09-12 22:52:00
6:52 PM,79.0,55.9,45,30.11,10.0,South,10.4,-,N/A,,Scattered Clouds,170,2012-09-12 23:52:00
7:52 PM,73.9,57.0,55,30.12,10.0,South,8.1,-,N/A,,Clear,170,2012-09-13 00:52:00
8:52 PM,72.0,57.0,59,30.14,10.0,South,9.2,-,N/A,,Clear,170,2012-09-13 01:52:00
9:52 PM,72.0,57.0,59,30.14,10.0,South,9.2,-,N/A,,Partly Cloudy,170,2012-09-13 02:52:00
10:52 PM,71.1,57.9,63,30.15,10.0,South,10.4,-,N/A,,Partly Cloudy,170,2012-09-13 03:52:00
11:52 PM,71.1,57.9,63,30.15,10.0,South,10.4,-,N/A,,Clear,180,2012-09-13 04:52:00